Terrell, TX

4:37 AM CST on January 19, 2018 (GMT -0600)
Terrell Municipal

Weather History for KTRL - September, 2014

Change the Weather History Date:

Tuesday, September 2, 2014

  Actual Average (KGVT) Record (KGVT)
Temperature  
Mean Temperature 88 °F -  
Max Temperature 97 °F 88 °F 102 °F (2011)
Min Temperature 78 °F 70 °F 64 °F (2004)
Cooling Degree Days 22    
Growing Degree Days 38 (Base 50)    
Moisture  
Dew Point 73 °F    
Average Humidity 68    
Maximum Humidity 93    
Minimum Humidity 37    
Precipitation  
Precipitation 0.00 in - - ()
Sea Level Pressure  
Sea Level Pressure 29.93 in    
Wind  
Wind Speed 11 mph (South)    
Max Wind Speed 16 mph    
Max Gust Speed 26 mph    
Visibility 10 miles    
Events      
Averages and records for this station are not official NWS values.
T = Trace of Precipitation, MM = Missing Value Source: NWS Daily Summary

Daily Weather History Graph

Daily Weather History Graph

Search for Another Location

Airport or City:

Trip Planner

Search our weather history database for the weather conditions in past years. The results will help you decide how hot, cold, wet, or windy it might be!

Date:

Astronomy

Sep. 02, 2014 Rise Set
Actual Time 7:00 AM CDT 7:48 PM CDT
Civil Twilight 6:35 AM CDT 8:13 PM CDT
Nautical Twilight 6:05 AM CDT 8:42 PM CDT
Astronomical Twilight 5:35 AM CDT 9:13 PM CDT
Moon 2:22 PM CDT (9/2) 12:14 AM CDT (9/2)
Length of Visible Light 13h 38m
Length of Day
12h 47m
First Quarter, 53% of the Moon is Illuminated
Sep 2
First Quarter
Sep 8
Full
Sep 15
Last Quarter
Sep 24
New
Oct 1
First Quarter

Hourly Weather History & Observations

Time (CDT) Temp. Heat Index Dew Point Humidity Pressure Visibility Wind Dir Wind Speed Gust Speed Precip Events Conditions
12:53 AM 84.0 °F 89.6 °F 72.0 °F 67% 29.90 in 10.0 mi SSE 11.5 mph - N/A   Clear
1:53 AM 82.9 °F 89.4 °F 73.9 °F 74% 29.90 in 10.0 mi South 15.0 mph - N/A   Clear
2:53 AM 82.0 °F 88.6 °F 75.0 °F 79% 29.88 in 10.0 mi South 13.8 mph - N/A   Clear
3:53 AM 80.1 °F 85.1 °F 75.0 °F 85% 29.87 in 10.0 mi South 11.5 mph - N/A   Clear
4:53 AM 79.0 °F - 75.0 °F 88% 29.89 in 10.0 mi South 6.9 mph - N/A   Clear
5:53 AM 78.1 °F - 75.9 °F 93% 29.89 in 10.0 mi South 8.1 mph - N/A   Clear
6:34 AM 79.0 °F - 75.9 °F 90% 29.93 in 10.0 mi South 10.4 mph - N/A   Mostly Cloudy
6:53 AM 79.0 °F - 75.9 °F 90% 29.92 in 10.0 mi South 10.4 mph - N/A   Mostly Cloudy
7:53 AM 80.1 °F 85.4 °F 75.9 °F 87% 29.94 in 10.0 mi South 9.2 mph - N/A   Overcast
8:53 AM 82.0 °F 89.4 °F 75.9 °F 82% 29.96 in 10.0 mi South 9.2 mph - N/A   Overcast
9:53 AM 84.9 °F 93.3 °F 75.0 °F 72% 29.97 in 10.0 mi SSW 12.7 mph - N/A   Mostly Cloudy
10:37 AM 84.9 °F 92.1 °F 73.9 °F 69% 30.00 in 10.0 mi SW 6.9 mph - N/A   Mostly Cloudy
10:53 AM 84.9 °F 92.1 °F 73.9 °F 69% 29.99 in 10.0 mi SSW 6.9 mph - N/A   Mostly Cloudy
11:53 AM 88.0 °F 95.6 °F 73.0 °F 61% 30.01 in 10.0 mi Variable 3.5 mph - N/A   Mostly Cloudy
12:53 PM 91.0 °F 97.6 °F 71.1 °F 52% 30.00 in 10.0 mi Variable 3.5 mph - N/A   Scattered Clouds
1:53 PM 93.0 °F 100.1 °F 71.1 °F 49% 29.96 in 10.0 mi SSE 8.1 mph - N/A   Clear
2:53 PM 93.9 °F 97.5 °F 66.9 °F 41% 29.93 in 10.0 mi North - - N/A   Scattered Clouds
3:53 PM 97.0 °F 101.0 °F 66.9 °F 37% 29.91 in 10.0 mi SSE 13.8 mph 18.4 mph N/A   Scattered Clouds
4:53 PM 96.1 °F 99.9 °F 66.9 °F 38% 29.88 in 10.0 mi SSE 12.7 mph - N/A   Partly Cloudy
5:53 PM 96.1 °F 99.3 °F 66.0 °F 37% 29.88 in 10.0 mi SSE 10.4 mph - N/A   Clear
6:53 PM 91.9 °F 95.9 °F 68.0 °F 45% 29.87 in 10.0 mi South 16.1 mph 26.5 mph N/A   Mostly Cloudy
8:53 PM 86.0 °F 90.1 °F 69.1 °F 57% 29.91 in 10.0 mi SSE 10.4 mph - N/A   Clear
9:53 PM 82.9 °F 88.0 °F 72.0 °F 69% 29.94 in 10.0 mi SE 10.4 mph - N/A   Clear
10:53 PM 81.0 °F 86.2 °F 73.9 °F 79% 29.94 in 10.0 mi SSE 9.2 mph - N/A   Clear
11:53 PM 80.1 °F 85.1 °F 75.0 °F 85% 29.94 in 10.0 mi SSE 10.4 mph - N/A   Clear